Weather History for KCQX - August, 2013

Change the Weather History Date:

Saturday, August 24, 2013

  Actual Average Record
Temperature  
Mean Temperature 62 °F -  
Max Temperature 72 °F 73 °F 81 °F (1999)
Min Temperature 54 °F 60 °F 51 °F (2004)
Degree Days  
Heating Degree Days 3    
Growing Degree Days 12 (Base 50)    
Moisture  
Dew Point 51 °F    
Average Humidity 63    
Maximum Humidity 90    
Minimum Humidity 39    
Precipitation  
Precipitation 0.00 in - - ()
Sea Level Pressure  
Sea Level Pressure 30.26 in    
Wind  
Wind Speed 5 mph (NNE)    
Max Wind Speed 13 mph    
Max Gust Speed 22 mph    
Visibility 10 miles    
Events      
Averages and records for this station are not official NWS values.
T = Trace of Precipitation, MM = Missing Value Source: NWS Daily Summary

Daily Weather History Graph

Daily Weather History Graph

Search for Another Location

Airport or City:

Trip Planner

Search our weather history database for the weather conditions in past years. The results will help you decide how hot, cold, wet, or windy it might be!

Date:

Astronomy

Aug. 24, 2013 Rise Set
Actual Time 5:57 AM EDT 7:25 PM EDT
Civil Twilight 5:28 AM EDT 7:54 PM EDT
Nautical Twilight 4:53 AM EDT 8:29 PM EDT
Astronomical Twilight 4:16 AM EDT 9:06 PM EDT
Moon 9:13 PM EDT (8/24) 9:58 AM EDT (8/24)
Length of Visible Light 14h 26m
Length of Day
13h 27m
Waning Gibbous, 84% of the Moon is Illuminated
Aug 24
Waning Gibbous
Aug 28
Last Quarter
Sep 5
New
Sep 12
First Quarter
Sep 19
Full

Hourly Weather History & Observations

Time (EDT) Temp. Dew Point Humidity Pressure Visibility Wind Dir Wind Speed Gust Speed Precip Events Conditions
12:52 AM 63.0 °F 57.9 °F 84% 30.12 in 10.0 mi Calm Calm - N/A   Clear
1:52 AM 64.0 °F 57.0 °F 78% 30.12 in 10.0 mi NNW 3.5 mph - N/A   Clear
2:52 AM 64.9 °F 55.0 °F 70% 30.13 in 10.0 mi Calm Calm - N/A   Clear
3:52 AM 66.0 °F 55.9 °F 70% 30.15 in 10.0 mi Variable 5.8 mph - N/A   Clear
4:52 AM 66.0 °F 55.9 °F 70% 30.17 in 10.0 mi NNE 6.9 mph - N/A   Clear
5:52 AM 64.9 °F 55.9 °F 73% 30.19 in 10.0 mi Variable 5.8 mph - N/A   Clear
6:52 AM 64.0 °F 55.0 °F 73% 30.22 in 10.0 mi NNE 5.8 mph - N/A   Clear
7:52 AM 66.9 °F 55.0 °F 66% 30.24 in 10.0 mi NNE 8.1 mph 16.1 mph N/A   Clear
8:52 AM 68.0 °F 53.1 °F 59% 30.25 in 10.0 mi NNE 6.9 mph 17.3 mph N/A   Clear
9:52 AM 69.1 °F 53.1 °F 57% 30.27 in 10.0 mi NNE 10.4 mph 18.4 mph N/A   Clear
10:52 AM 69.1 °F 51.1 °F 53% 30.28 in 10.0 mi NNE 11.5 mph 19.6 mph N/A   Clear
11:52 AM 70.0 °F 50.0 °F 49% 30.29 in 10.0 mi NNE 10.4 mph 18.4 mph N/A   Clear
12:52 PM 70.0 °F 46.0 °F 42% 30.29 in 10.0 mi NNE 8.1 mph 21.9 mph N/A   Clear
1:52 PM 70.0 °F 46.0 °F 42% 30.30 in 10.0 mi NE 12.7 mph 16.1 mph N/A   Clear
2:52 PM 70.0 °F 45.0 °F 41% 30.30 in 10.0 mi NNE 11.5 mph 19.6 mph N/A   Clear
3:52 PM 70.0 °F 44.1 °F 39% 30.30 in 10.0 mi NNE 9.2 mph - N/A   Clear
4:52 PM 69.1 °F 48.0 °F 47% 30.30 in 10.0 mi NNE 6.9 mph - N/A   Clear
5:52 PM 68.0 °F 46.9 °F 47% 30.30 in 10.0 mi NE 6.9 mph - N/A   Clear
6:52 PM 66.0 °F 46.9 °F 50% 30.30 in 10.0 mi Variable 3.5 mph - N/A   Clear
7:52 PM 59.0 °F 48.0 °F 67% 30.31 in 10.0 mi NW 3.5 mph - N/A   Clear
8:52 PM 55.0 °F 48.9 °F 80% 30.32 in 10.0 mi Calm Calm - N/A   Clear
9:52 PM 54.0 °F 48.9 °F 83% 30.34 in 10.0 mi Calm Calm - N/A   Clear
10:52 PM 55.0 °F 51.1 °F 86% 30.33 in 10.0 mi NW 3.5 mph - N/A   Clear
11:52 PM 54.0 °F 51.1 °F 90% 30.34 in 10.0 mi WNW 3.5 mph - N/A   Clear